N282SF KSYR-KSYR

Flight info

Callsign N282SF
Flight time 0h 21m
Altitude 4000
Route IFR PRACTICE APPROACHES
Aircraft C182/L-DOV/C

Departure

Time 2026-04-26 19:30
Airport Syracuse Hancock International Airport (KSYR)

Arrival

Time 2026-04-26 19:51
Airport Syracuse Hancock International Airport (KSYR)
Time Latitude Longitude Altitude Speed Heading
2026-04-26 19:23 43.11116 -76.12425 425 ft 0 kts 357°
2026-04-26 19:25 43.11100 -76.12433 417 ft 2 kts 178°
2026-04-26 19:25 43.11089 -76.12433 420 ft 7 kts 178°
2026-04-26 19:26 43.11039 -76.12484 422 ft 9 kts 198°
2026-04-26 19:26 43.10988 -76.12486 428 ft 7 kts 181°
2026-04-26 19:26 43.10951 -76.12520 426 ft 7 kts 248°
2026-04-26 19:26 43.10946 -76.12575 431 ft 5 kts 265°
2026-04-26 19:27 43.10933 -76.12618 431 ft 5 kts 222°
2026-04-26 19:27 43.10914 -76.12632 431 ft 0 kts 191°
2026-04-26 19:27 43.10905 -76.12634 421 ft 7 kts 187°
2026-04-26 19:27 43.10840 -76.12557 425 ft 16 kts 125°
2026-04-26 19:28 43.10824 -76.12493 427 ft 0 kts 88°
2026-04-26 19:29 43.10826 -76.12428 428 ft 29 kts 87°
2026-04-26 19:29 43.10855 -76.11747 448 ft 109 kts 87°
2026-04-26 19:29 43.10860 -76.10630 961 ft 121 kts 90°
2026-04-26 19:30 43.10887 -76.09405 1508 ft 136 kts 87°
2026-04-26 19:30 43.10886 -76.08058 2061 ft 145 kts 87°
2026-04-26 19:30 43.10877 -76.06563 2557 ft 171 kts 85°
2026-04-26 19:30 43.10912 -76.05458 2915 ft 179 kts 85°
2026-04-26 19:31 43.10884 -76.03156 3632 ft 183 kts 90°
2026-04-26 19:31 43.10885 -76.01393 3994 ft 193 kts 87°
2026-04-26 19:31 43.10914 -75.99505 4003 ft 203 kts 86°
2026-04-26 19:31 43.10937 -75.97526 4008 ft 213 kts 88°
2026-04-26 19:32 43.10941 -75.95472 4008 ft 219 kts 89°
2026-04-26 19:32 43.10950 -75.93359 4008 ft 223 kts 88°
2026-04-26 19:32 43.10966 -75.91228 4002 ft 225 kts 88°
2026-04-26 19:32 43.10980 -75.89071 4005 ft 227 kts 88°
2026-04-26 19:33 43.10996 -75.86900 4016 ft 227 kts 86°
2026-04-26 19:33 43.11522 -75.84923 3983 ft 228 kts 51°
2026-04-26 19:33 43.12862 -75.83842 3980 ft 227 kts 13°
2026-04-26 19:33 43.14437 -75.83978 4003 ft 228 kts 349°
2026-04-26 19:34 43.15887 -75.84840 3979 ft 232 kts 321°
2026-04-26 19:34 43.16650 -75.86745 3988 ft 236 kts 281°
2026-04-26 19:34 43.16673 -75.88991 3994 ft 236 kts 268°
2026-04-26 19:34 43.16583 -75.91252 3995 ft 237 kts 268°
2026-04-26 19:35 43.16489 -75.93520 3997 ft 238 kts 268°
2026-04-26 19:35 43.16393 -75.95765 3996 ft 239 kts 267°
2026-04-26 19:35 43.16294 -75.98044 4000 ft 239 kts 269°
2026-04-26 19:35 43.16188 -76.00327 4000 ft 240 kts 268°
2026-04-26 19:36 43.16081 -76.02624 3999 ft 241 kts 268°
2026-04-26 19:36 43.16011 -76.04138 3998 ft 241 kts 267°
2026-04-26 19:36 43.15878 -76.07182 3997 ft 241 kts 268°
2026-04-26 19:36 43.15773 -76.09487 3912 ft 244 kts 268°
2026-04-26 19:37 43.15671 -76.11803 3737 ft 246 kts 268°
2026-04-26 19:37 43.15580 -76.14164 3561 ft 248 kts 268°
2026-04-26 19:37 43.15486 -76.16534 3380 ft 250 kts 268°
2026-04-26 19:37 43.15389 -76.18907 3209 ft 248 kts 268°
2026-04-26 19:38 43.15293 -76.21247 3203 ft 242 kts 268°
2026-04-26 19:38 43.15189 -76.23498 3208 ft 239 kts 268°
2026-04-26 19:38 43.15078 -76.25770 3201 ft 238 kts 268°
2026-04-26 19:38 43.14975 -76.28033 3207 ft 237 kts 268°
2026-04-26 19:39 43.14877 -76.30286 3200 ft 237 kts 268°
2026-04-26 19:39 43.14782 -76.32532 3200 ft 235 kts 269°
2026-04-26 19:39 43.14683 -76.34747 3199 ft 235 kts 268°
2026-04-26 19:39 43.14589 -76.37007 3209 ft 235 kts 269°
2026-04-26 19:40 43.14494 -76.39197 3221 ft 223 kts 268°
2026-04-26 19:40 43.14293 -76.41161 3210 ft 197 kts 249°
2026-04-26 19:40 43.13407 -76.42423 3208 ft 177 kts 213°
2026-04-26 19:40 43.12422 -76.43338 3200 ft 170 kts 220°
2026-04-26 19:41 43.11552 -76.44390 3228 ft 169 kts 224°
2026-04-26 19:41 43.10654 -76.45485 3207 ft 172 kts 223°
2026-04-26 19:41 43.09767 -76.46588 3211 ft 172 kts 225°
2026-04-26 19:41 43.09189 -76.47330 3215 ft 171 kts 224°
2026-04-26 19:42 43.08013 -76.48827 3212 ft 175 kts 225°
2026-04-26 19:42 43.07126 -76.49960 3206 ft 173 kts 226°
2026-04-26 19:42 43.06475 -76.51339 3226 ft 174 kts 248°
2026-04-26 19:42 43.06160 -76.52945 3228 ft 179 kts 264°
2026-04-26 19:43 43.06441 -76.54527 3216 ft 174 kts 307°
2026-04-26 19:43 43.07406 -76.55440 3226 ft 169 kts 348°
2026-04-26 19:43 43.08557 -76.55257 3222 ft 168 kts 28°
2026-04-26 19:43 43.09268 -76.54015 3220 ft 173 kts 70°
2026-04-26 19:44 43.09455 -76.52411 3224 ft 174 kts 86°
2026-04-26 19:44 43.09503 -76.50737 3230 ft 175 kts 83°
2026-04-26 19:44 43.09577 -76.49102 3207 ft 172 kts 86°
2026-04-26 19:44 43.09609 -76.47496 3212 ft 166 kts 85°
2026-04-26 19:45 43.09678 -76.45944 3201 ft 162 kts 83°
2026-04-26 19:45 43.09739 -76.44413 3227 ft 160 kts 85°
2026-04-26 19:45 43.09784 -76.42878 3200 ft 160 kts 85°
2026-04-26 19:45 43.09841 -76.41357 3199 ft 158 kts 83°
2026-04-26 19:46 43.09901 -76.39876 3210 ft 158 kts 85°
2026-04-26 19:46 43.09940 -76.38335 3205 ft 165 kts 86°
2026-04-26 19:46 43.09990 -76.36769 3213 ft 163 kts 84°
2026-04-26 19:46 43.10033 -76.35210 3194 ft 163 kts 85°
2026-04-26 19:47 43.10108 -76.33667 3195 ft 164 kts 82°
2026-04-26 19:47 43.10154 -76.32635 3199 ft 162 kts 86°
2026-04-26 19:47 43.10209 -76.30527 3030 ft 172 kts 87°
2026-04-26 19:47 43.10265 -76.28859 2817 ft 178 kts 83°
2026-04-26 19:48 43.10342 -76.27141 2565 ft 181 kts 83°
2026-04-26 19:48 43.10389 -76.25437 2322 ft 175 kts 83°
2026-04-26 19:48 43.10456 -76.23838 2093 ft 164 kts 83°
2026-04-26 19:48 43.10505 -76.22315 1874 ft 157 kts 86°
2026-04-26 19:49 43.10538 -76.20848 1658 ft 150 kts 85°
2026-04-26 19:49 43.10589 -76.19512 1469 ft 130 kts 83°
2026-04-26 19:49 43.10620 -76.18352 1285 ft 117 kts 84°
2026-04-26 19:49 43.10666 -76.17276 1127 ft 107 kts 84°
2026-04-26 19:50 43.10692 -76.16352 969 ft 92 kts 85°
2026-04-26 19:50 43.10711 -76.15493 818 ft 91 kts 85°
2026-04-26 19:50 43.10747 -76.14589 781 ft 94 kts 86°
2026-04-26 19:50 43.10781 -76.13692 649 ft 93 kts 84°
2026-04-26 19:51 43.10807 -76.12859 493 ft 85 kts 85°
2026-04-26 19:51 43.10836 -76.12147 420 ft 65 kts 86°
2026-04-26 19:51 43.10882 -76.11820 417 ft 17 kts 22°
2026-04-26 19:51 43.10962 -76.11840 417 ft 11 kts 291°
2026-04-26 19:52 43.10967 -76.11893 417 ft 9 kts 271°